2025-007H

Last updated on Tue Jan 14 2025 00:02:05 GMT+0000 (Coordinated Universal Time)

1 62582U 25007H 25013.45944916 -.00000210 00000+0 00000+0 0 9992 2 62582 54.9813 126.8661 0010639 295.2992 161.1530 14.75330543 48
UTC large
Height (km)
Speed (km/s)
/
Latitude / Longitude
Inclination (degrees)
Orbital Period (minutes)
Azimuth
Elevation
Range (km)
Doppler Factor

Next 0 passes for location: London (51.5072 / 0.1276)

Sorry there are no passes over London.